Location: Chiroubles
(46.1812°N, 4.6660°E)
Time: 03:37:01
(UTC+00:00)

SL-4 R/B - Pass Details

Date: 15 August 2020
Orbit: 428 x 665 km, 51.6° (Epoch: 27 September)

Event Time Altitude Azimuth Distance (km) Brightness Sun altitude
Rises 19:55:43 0° 270° (W) 2,726 6.6 -11.0°
Reaches altitude 10° 19:58:09 10° 278° (W) 1,788 5.7 -11.3°
Maximum altitude 20:01:58 40° 349° (N) 763 3.2 -11.9°
Drops below altitude 10° 20:05:31 10° 60° (ENE) 1,660 4.2 -12.4°
Enters shadow 20:06:47 - 66° (ENE) 2,146 4.7 -12.6°
